Stations météo

Publicité
Cherbourg, France (7024): Température de l'air & dewpoint: 19.05.2018 13:00:00 - 25.05.2018 13:00:00 (CEST)Cherbourg, France (7024): Température de l'air 5cm: 19.05.2018 13:00:00 - 25.05.2018 13:00:00 (CEST)Cherbourg, France (7024): Température de l'air -20cm & Température de l'air -100cm: 19.05.2018 13:00:00 - 25.05.2018 13:00:00 (CEST)Cherbourg, France (7024): Vitesse du vent & gusts: 19.05.2018 13:00:00 - 25.05.2018 13:00:00 (CEST)Cherbourg, France (7024): Direction du vent: 19.05.2018 13:00:00 - 25.05.2018 13:00:00 (CEST)Cherbourg, France (7024): reduced air pressure: 19.05.2018 13:00:00 - 25.05.2018 13:00:00 (CEST)Cherbourg, France (7024): visibility: 19.05.2018 13:00:00 - 25.05.2018 13:00:00 (CEST)Cherbourg, France (7024): Ensoleillement: 19.05.2018 13:00:00 - 25.05.2018 13:00:00 (CEST)Cherbourg, France (7024): Quantités de précipitations: 19.05.2018 13:00:00 - 25.05.2018 13:00:00 (CEST)
Date & Time tt [°C] td [°C] tt 5cm [°C] tt -20cm [°C] tt -100cm [°C] ff [km/h] ff [knt] fx [km/h] fx [knt] dd ppp [hPa] vv [km] sd [min] rr [mm]
25.05.2018 13:00:00 - - - - - - - - - - - - - -
25.05.2018 12:00:00 14,8 12,5 21,7 12,9 12,0 9 5 14 8 NW 1018,2 4,4 24 0,0
25.05.2018 11:00:00 14,1 13,5 16,3 12,9 12,0 6 3 13 7 NW 1018,1 3,0 11 0,0
25.05.2018 10:00:00 12,7 12,1 15,8 12,9 12,0 9 5 14 7 WNW 1018,4 0,2 0 0,0
25.05.2018 09:00:00 11,9 11,3 12,9 12,9 12,0 8 5 11 6 WNW 1018,4 0,1 23 0,0
25.05.2018 08:00:00 13,0 12,5 8,0 12,9 12,0 2 1 5 3 SSW 1018,0 1,6 28 0,0
25.05.2018 07:00:00 10,6 10,0 7,7 13,0 12,0 3 1 4 2 WSW 1018,1 0,1 0 0,0
25.05.2018 06:00:00 12,3 11,8 12,3 13,0 12,0 3 2 8 4 WNW 1017,7 0,6 0 0,0
25.05.2018 05:00:00 12,0 11,4 12,4 13,0 12,0 5 3 11 6 NNW 1017,7 0,1 0 0,0
25.05.2018 04:00:00 12,4 11,8 12,4 13,0 12,0 4 2 6 3 NW 1017,9 0,5 0 0,0
25.05.2018 03:00:00 12,1 11,5 12,4 13,0 11,9 4 2 10 6 NW 1018,0 0,1 0 0,0
25.05.2018 02:00:00 12,2 11,6 12,3 13,0 12,0 3 2 6 4 NNW 1018,1 0,1 0 0,0
25.05.2018 01:00:00 11,9 11,3 11,5 13,1 11,9 3 2 9 5 WNW 1018,6 0,1 0 0,2
25.05.2018 00:00:00 12,0 11,4 11,4 13,1 12,0 6 3 12 7 NW 1018,4 0,2 0 0,0
24.05.2018 23:00:00 12,5 11,9 12,9 13,1 11,9 5 3 8 5 NNE 1018,6 0,2 0 0,0
24.05.2018 22:00:00 12,5 11,9 12,8 13,1 11,9 2 1 11 6 ENE 1018,6 0,3 0 0,0
24.05.2018 21:00:00 12,4 11,8 13,2 13,1 11,9 7 4 12 7 NE 1018,4 0,2 0 0,2
24.05.2018 20:00:00 12,5 11,9 14,5 13,0 11,9 9 5 18 10 NNE 1018,2 0,2 0 0,0
24.05.2018 19:00:00 12,7 11,9 15,7 13,0 11,9 11 6 18 10 NE 1018,2 1,3 0 0,0
24.05.2018 18:00:00 13,1 12,0 17,1 13,0 11,9 11 6 22 12 NE 1018,3 2,0 0 0,0
24.05.2018 17:00:00 13,2 11,6 19,8 12,9 11,9 15 8 21 11 NE 1018,4 3,3 0 0,0
24.05.2018 16:00:00 14,6 12,1 23,5 12,9 11,9 11 6 18 10 NE 1018,5 5 2 0,0
24.05.2018 15:00:00 14,9 12,0 21,8 12,9 11,9 7 4 14 7 NNE 1018,6 6 0 0,0
24.05.2018 14:00:00 13,8 11,8 19,7 12,9 11,9 8 4 14 8 NE 1019,2 3,9 0 0,0
24.05.2018 13:00:00 13,0 11,6 18,5 12,9 11,9 9 5 14 8 ENE 1019,5 2,6 0 0,0
24.05.2018 12:00:00 12,8 11,5 16,3 12,9 11,9 8 5 15 8 NE 1019,6 3,4 0 0,0
24.05.2018 11:00:00 12,2 11,4 14,9 12,8 11,9 10 5 16 9 ENE 1019,7 1,4 0 0,0
24.05.2018 10:00:00 11,8 11,2 14,0 12,9 11,9 9 5 16 9 NE 1019,8 1,8 0 0,0
24.05.2018 09:00:00 11,7 11,1 12,8 12,9 11,9 8 4 15 8 ENE 1019,5 1,5 0 0,0
24.05.2018 08:00:00 11,4 10,8 11,9 12,9 11,9 9 5 14 8 NE 1019,5 1,6 0 0,0
24.05.2018 07:00:00 11,3 10,7 10,9 13,0 11,9 9 5 17 9 NNE 1019,4 1,5 0 0,0
24.05.2018 06:00:00 11,0 10,2 7,2 13,0 11,9 10 5 16 9 NE 1019,4 2,1 0 0,0
24.05.2018 05:00:00 10,4 9,3 7,2 13,0 11,9 9 5 18 10 E 1019,7 3,3 0 0,0
24.05.2018 04:00:00 10,8 9,9 6,9 13,1 11,9 12 6 18 10 ENE 1019,9 3,0 0 0,0
24.05.2018 03:00:00 10,6 9,2 7,5 13,1 11,9 7 4 11 6 NE 1020,4 4,4 0 0,0
24.05.2018 02:00:00 11,0 9,3 9,4 13,2 11,8 6 4 11 6 NNE 1020,8 5 0 0,0
24.05.2018 01:00:00 11,5 9,4 11,6 13,2 11,8 6 3 9 5 N 1020,8 8 0 0,0
24.05.2018 00:00:00 11,4 9,3 11,6 13,2 11,8 6 4 9 5 N 1021,3 8 0 0,0
23.05.2018 23:00:00 11,7 9,6 11,4 13,2 11,8 5 3 13 7 N 1021,4 9 0 0,0
23.05.2018 22:00:00 11,9 9,6 11,6 13,2 11,8 9 5 21 11 NE 1021,1 9 0 0,0
23.05.2018 21:00:00 12,7 9,5 13,0 13,2 11,8 11 6 22 12 E 1021,2 11 8 0,0
23.05.2018 20:00:00 13,2 9,4 15,7 13,0 11,8 12 7 21 12 ENE 1021,1 13 4 0,0
23.05.2018 19:00:00 14,0 9,0 18,8 13,0 11,8 12 7 24 13 NE 1020,9 14 36 0,0
23.05.2018 18:00:00 15,2 9,3 24,9 12,9 11,8 14 8 25 13 NE 1021,1 14 60 0,0
23.05.2018 17:00:00 15,7 9,8 28,5 12,8 11,8 15 8 28 15 NE 1021,4 13 60 0,0
23.05.2018 16:00:00 15,3 9,9 31,6 12,7 11,8 16 9 30 16 ENE 1021,8 10 60 0,0
23.05.2018 15:00:00 15,0 9,6 33,1 12,6 11,8 18 10 30 16 ENE 1022,2 9 58 0,0
23.05.2018 14:00:00 14,5 9,1 32,5 12,6 11,8 18 10 30 16 ENE 1022,2 8 60 0,0
23.05.2018 13:00:00 14,2 9,2 30,8 12,6 11,8 19 10 30 16 ENE 1022,6 8 60 0,0
23.05.2018 12:00:00 14,1 10,1 22,2 12,6 11,8 17 9 31 17 NE 1022,5 10 52 0,0
23.05.2018 11:00:00 13,3 9,4 18,1 12,6 11,8 19 10 33 18 NE 1022,5 10 35 0,0
23.05.2018 10:00:00 12,2 8,7 13,2 12,6 11,8 19 10 30 16 ENE 1022,4 10 48 0,0
23.05.2018 09:00:00 11,3 9,2 10,7 12,7 11,8 18 10 32 17 NE 1022,1 8 32 0,0
23.05.2018 08:00:00 11,0 8,9 8,8 12,7 11,8 18 10 29 16 NE 1021,4 8 46 0,0
23.05.2018 07:00:00 10,2 9,1 7,7 12,8 11,7 16 9 25 14 NE 1020,9 6 0 0,0
23.05.2018 06:00:00 10,0 8,9 7,0 12,8 11,8 14 8 24 13 NE 1020,4 7 0 0,0
23.05.2018 05:00:00 10,5 9,6 3,2 12,9 11,7 13 7 18 10 NNE 1020,0 6 0 0,2
23.05.2018 04:00:00 9,6 7,2 3,4 13,0 11,7 4 2 10 5 N 1020,0 3,8 0 0,0
23.05.2018 03:00:00 11,3 8,7 3,5 13,0 11,7 6 4 11 6 E 1019,8 6 0 0,0
23.05.2018 02:00:00 11,2 8,8 5,0 13,0 11,7 7 4 13 7 N 1019,8 7 0 0,0
23.05.2018 01:00:00 11,9 8,7 6,6 13,1 11,7 7 4 11 6 NNW 1019,7 12 0 0,0
23.05.2018 00:00:00 12,9 9,3 6,6 13,1 11,7 8 4 12 7 NW 1019,0 12 0 0,0
22.05.2018 23:00:00 11,3 8,7 6,9 13,2 11,7 5 3 9 5 NNW 1018,7 13 0 0,0
22.05.2018 22:00:00 13,4 9,1 8,9 13,1 11,7 6 4 13 7 NW 1018,0 17 13 0,0
22.05.2018 21:00:00 15,5 9,2 13,9 13,1 11,7 8 5 18 10 NNW 1017,5 15 60 0,0
22.05.2018 20:00:00 16,9 10,3 18,3 13,0 11,7 9 5 21 11 NW 1017,1 13 60 0,0
22.05.2018 19:00:00 16,9 10,5 21,4 12,9 11,7 11 6 18 10 NW 1016,7 13 60 0,0
22.05.2018 18:00:00 17,2 11,5 25,3 12,8 11,7 12 6 22 12 WNW 1016,8 12 60 0,0
22.05.2018 17:00:00 17,1 11,6 24,0 12,8 11,7 10 6 19 10 NW 1016,7 12 29 0,0
22.05.2018 16:00:00 16,8 10,2 27,1 12,7 11,7 11 6 22 12 NW 1017,0 16 57 0,0
22.05.2018 15:00:00 16,0 10,1 25,4 12,6 11,7 12 6 23 12 NNW 1016,9 10 50 0,0
22.05.2018 14:00:00 16,0 9,9 33,9 12,5 11,6 12 6 23 12 NNW 1016,7 12 60 0,0
22.05.2018 13:00:00 17,6 10,9 22,7 12,5 11,7 11 6 25 13 NE 1016,2 14 36 0,0
22.05.2018 12:00:00 15,3 9,4 22,4 12,5 11,7 16 9 27 15 NE 1016,1 19 43 0,0
22.05.2018 11:00:00 14,9 9,7 20,5 12,5 11,7 16 9 26 14 N 1016,2 18 35 0,0
22.05.2018 10:00:00 15,2 9,8 19,0 12,5 11,7 13 7 22 12 NNE 1015,5 18 60 0,0
22.05.2018 09:00:00 14,5 10,5 12,4 12,6 11,6 13 7 22 12 N 1015,3 15 57 0,0
22.05.2018 08:00:00 12,4 10,1 9,3 12,6 11,7 8 4 16 9 NW 1015,0 9 24 0,0
22.05.2018 07:00:00 11,0 9,7 9,1 12,6 11,6 8 5 17 9 NW 1014,7 4,1 0 0,0
22.05.2018 06:00:00 11,0 9,7 8,1 12,7 11,6 12 6 16 9 WNW 1014,5 3,9 0 0,0
22.05.2018 05:00:00 11,1 9,5 7,7 12,7 11,6 9 5 16 9 NW 1014,7 4,8 0 0,0
22.05.2018 04:00:00 11,1 8,8 7,7 12,8 11,7 9 5 17 9 WNW 1014,5 7 0 0,0
22.05.2018 03:00:00 11,4 8,8 7,9 12,8 11,6 9 5 14 8 NW 1014,6 9 0 0,0
22.05.2018 02:00:00 12,3 9,5 7,9 12,9 11,6 8 4 19 11 NNW 1014,7 15 0 0,0
22.05.2018 01:00:00 11,3 9,2 8,1 12,9 11,6 7 4 16 9 NW 1015,1 8 0 0,0
22.05.2018 00:00:00 12,3 9,5 8,4 12,9 11,6 10 6 21 12 NW 1015,1 9 0 0,0
21.05.2018 23:00:00 11,6 9,2 5,7 12,9 11,6 9 5 16 9 NW 1015,4 9 0 0,0
21.05.2018 22:00:00 11,6 8,8 7,4 12,9 11,6 5 3 16 8 N 1014,6 11 12 0,0
21.05.2018 21:00:00 13,5 9,2 13,5 12,8 11,6 10 6 17 9 NNW 1014,6 11 60 0,0
21.05.2018 20:00:00 16,1 9,5 18,9 12,8 11,6 10 5 15 8 NNE 1014,2 19 60 0,0
21.05.2018 19:00:00 16,0 10,3 23,6 12,7 11,6 10 5 22 12 NNE 1014,2 15 60 0,0
21.05.2018 18:00:00 17,4 11,0 28,1 12,6 11,6 13 7 23 12 NE 1014,0 16 60 0,0
21.05.2018 17:00:00 16,2 11,4 30,7 12,5 11,6 16 8 25 14 NE 1014,3 11 60 0,0
21.05.2018 16:00:00 16,4 11,5 32,8 12,4 11,6 14 8 24 13 NE 1014,5 9 60 0,0
21.05.2018 15:00:00 16,8 11,3 35,1 12,3 11,6 14 8 24 13 NE 1014,7 13 60 0,0
21.05.2018 14:00:00 16,1 10,8 33,6 12,2 11,6 15 8 26 14 ENE 1014,8 10 60 0,0
21.05.2018 13:00:00 15,4 11,2 31,7 12,2 11,6 16 9 25 14 ENE 1015,0 7 60 0,0
21.05.2018 12:00:00 15,3 11,5 25,6 12,1 11,6 14 7 23 12 ENE 1015,2 7 60 0,0
21.05.2018 11:00:00 13,7 10,9 21,8 12,1 11,6 14 8 22 12 NE 1015,4 4,8 44 0,0
21.05.2018 10:00:00 13,6 10,6 16,0 12,1 11,6 13 7 19 11 ENE 1015,6 4,2 56 0,0
21.05.2018 09:00:00 12,8 10,5 10,9 12,1 11,6 11 6 24 13 ENE 1015,7 3,8 37 0,0
21.05.2018 08:00:00 10,7 9,8 7,4 12,2 11,6 14 7 19 11 ENE 1016,0 2,0 0 0,0
21.05.2018 07:00:00 9,8 8,7 4,7 12,3 11,6 10 6 20 11 ENE 1016,0 2,5 0 0,2
21.05.2018 06:00:00 9,2 7,6 4,1 12,3 11,5 10 5 18 10 ENE 1016,3 3,6 0 0,0
21.05.2018 05:00:00 9,4 7,8 4,2 12,3 11,6 9 5 16 9 E 1016,7 3,2 0 0,0
21.05.2018 04:00:00 10,0 8,6 6,1 12,4 11,6 9 5 18 10 E 1017,1 2,8 0 0,0
21.05.2018 03:00:00 10,6 9,0 7,8 12,4 11,5 12 6 21 11 E 1017,4 2,9 0 0,0
21.05.2018 02:00:00 10,7 9,0 7,3 12,4 11,5 13 7 22 12 E 1017,9 3,7 0 0,0
21.05.2018 01:00:00 10,8 8,4 7,6 12,5 11,5 10 6 23 13 E 1018,3 4,7 0 0,0
21.05.2018 00:00:00 10,5 7,7 7,2 12,5 11,5 12 7 22 12 E 1018,8 6 0 0,0
20.05.2018 23:00:00 9,8 8,2 6,4 12,5 11,5 13 7 19 10 E 1019,2 3,9 0 0,0
20.05.2018 22:00:00 9,7 7,8 7,2 12,5 11,5 12 7 20 11 ENE 1019,1 3,8 11 0,0
20.05.2018 21:00:00 11,1 8,7 10,6 12,5 11,5 13 7 22 12 ENE 1018,8 3,7 60 0,0
20.05.2018 20:00:00 12,0 9,0 14,6 12,4 11,5 14 8 23 12 E 1019,0 4,6 60 0,0
20.05.2018 19:00:00 12,3 8,9 19,3 12,3 11,5 15 8 25 14 ENE 1019,4 4,6 60 0,0
20.05.2018 18:00:00 12,5 8,6 23,3 12,2 11,5 19 10 30 16 E 1019,6 6 60 0,0
20.05.2018 17:00:00 12,8 8,7 26,5 12,1 11,5 20 11 29 16 ENE 1020,3 7 60 0,0
20.05.2018 16:00:00 13,8 9,4 30,2 12,0 11,5 18 10 30 16 ENE 1020,8 7 60 0,0
20.05.2018 15:00:00 13,7 9,7 29,2 11,9 11,5 19 10 29 16 ENE 1021,3 9 60 0,0
20.05.2018 14:00:00 14,5 10,5 26,2 11,9 11,5 15 8 29 16 E 1021,9 7 60 0,0
20.05.2018 13:00:00 13,4 9,6 20,4 11,8 11,5 15 8 29 16 E 1022,3 8 22 0,0
20.05.2018 12:00:00 13,0 9,1 16,8 11,8 11,5 18 10 30 16 ESE 1022,4 7 32 0,0
20.05.2018 11:00:00 11,7 9,4 15,4 11,8 11,5 15 8 28 15 E 1022,6 7 1 0,0
20.05.2018 10:00:00 11,3 9,7 13,1 11,8 11,5 13 7 21 11 E 1022,6 8 3 0,0
20.05.2018 09:00:00 10,3 9,7 11,1 11,9 11,5 10 6 18 10 E 1022,7 3,7 0 0,0
20.05.2018 08:00:00 9,7 9,1 9,9 11,9 11,5 11 6 20 11 ENE 1022,5 3,2 0 0,0
20.05.2018 07:00:00 9,5 8,9 9,1 11,9 11,5 10 5 21 11 ENE 1022,3 2,2 0 0,0
20.05.2018 06:00:00 9,0 8,4 7,9 12,0 11,5 11 6 18 10 E 1022,3 1,3 0 0,2
20.05.2018 05:00:00 8,8 8,2 6,0 12,0 11,5 12 7 19 11 E 1022,6 4,1 0 0,0
20.05.2018 04:00:00 8,3 7,7 2,5 12,1 11,5 12 6 15 8 E 1023,0 3,7 0 0,0
20.05.2018 03:00:00 7,5 6,9 2,7 12,2 11,5 10 5 14 7 ENE 1023,2 1,4 0 0,0
20.05.2018 02:00:00 7,5 6,9 3,7 12,2 11,5 10 6 15 8 ENE 1023,5 3,0 0 0,0
20.05.2018 01:00:00 8,0 7,4 0,1 12,3 11,5 10 5 15 8 ENE 1023,8 2,2 0 0,2
20.05.2018 00:00:00 7,3 6,6 0,1 12,3 11,5 6 4 11 6 NNE 1023,9 2,7 0 0,0
19.05.2018 23:00:00 7,4 6,5 0,4 12,3 11,5 7 4 11 6 NE 1023,6 6 0 0,0
19.05.2018 22:00:00 8,3 5,6 3,6 12,3 11,5 7 4 19 10 ENE 1023,2 13 10 0,0
19.05.2018 21:00:00 11,3 5,4 9,5 12,3 11,5 14 7 24 13 E 1022,7 20 60 0,0
19.05.2018 20:00:00 12,6 6,0 14,4 12,2 11,5 14 8 24 13 E 1023,0 20 60 0,0
19.05.2018 19:00:00 13,7 7,0 20,0 12,1 11,5 15 8 27 15 ENE 1023,3 19 60 0,0
19.05.2018 18:00:00 15,0 7,3 24,6 12,0 11,5 13 7 27 15 ENE 1023,3 19 60 0,0
19.05.2018 17:00:00 14,7 5,2 29,0 11,9 11,5 16 9 29 16 ENE 1023,7 34 60 0,0
19.05.2018 16:00:00 15,0 7,5 32,1 11,7 11,5 16 8 27 14 NE 1024,0 20 60 0,0
19.05.2018 15:00:00 14,6 7,6 33,5 11,7 11,5 14 8 23 12 NE 1024,3 19 60 0,0
19.05.2018 14:00:00 14,3 7,8 32,4 11,6 11,5 14 7 23 12 ENE 1024,6 18 60 0,0
19.05.2018 13:00:00 14,0 7,7 31,7 11,6 11,5 13 7 24 13 ENE 1024,8 19 60 0,0

tt = Température de l'air
td = dewpoint
tt 5cm = Température de l'air 5cm
tt -20cm = Température de l'air -20cm
tt -100cm = Température de l'air -100cm
ff = Vitesse du vent
fx = gusts
dd = Direction du vent
ppp = reduced air pressure
vv = visibility
sd = Ensoleillement
rr = Quantités de précipitations

stations d'obs. à proximité